Location: *
(45.2167°S, 172.4833°W)
Time: 20:58:51
(UTC+00:00)

Daily predictions for brighter satellites

Satellite Brightness Start Highest point End
(mag) Time Altitude Azimuth Time Altitude Azimuth Time Altitude Azimuth
SL-4 R/B 3.6 12:01:29 10° WSW 12:05:18 34° S 12:08:55 10° ESE
Lacrosse 5 rocket 4.1 12:04:54 10° SW 12:07:03 15° SSW 12:09:11 10° SSE
Cosmos 2181 Rocket 4.1 12:09:42 44° NW 12:11:42 67° W 12:17:57 10° S
Cosmos 1726 Rocket 3.6 12:12:01 64° WNW 12:12:16 66° W 12:16:40 10° S
FENGYUN 3A 4.3 12:13:03 31° NE 12:15:22 52° ESE 12:20:39 10° S
ATLAS 3B R/B 2.4 12:14:03 10° SW 12:20:18 89° SE 12:23:26 32° NE
Genesis I 4.0 12:20:57 10° SSW 12:23:39 37° SE 12:23:39 37° SE
Cosmos 1953 Rocket 3.6 12:20:46 10° SSW 12:25:08 62° W 12:25:15 62° WNW
Cosmos 1933 3.5 12:25:42 61° E 12:25:42 61° E 12:29:37 10° SSE
Meteor 1-25 Rocket 4.2 12:21:09 10° S 12:27:07 89° E 12:28:59 46° N
Nadezhda 3 Rocket 4.0 12:26:24 45° N 12:28:34 83° E 12:34:57 10° S
USA 229 DEB 3.8 12:22:35 10° SW 12:29:16 67° SE 12:34:25 15° NE
USA 229 3.8 12:22:40 10° SW 12:29:20 66° SE 12:34:35 14° NE
Meteor 1-20 Rocket 4.2 12:25:23 10° SSW 12:30:56 68° W 12:32:13 51° NNW
ALOS 2 3.2 12:26:53 10° S 12:31:09 45° WSW 12:31:51 41° W
IDEFIX/ARIANE 42P 2.6 12:31:14 53° NNW 12:32:17 65° WNW 12:37:34 10° SSW
Gbstr 26 Del rocket 3.9 12:27:05 10° WSW 12:32:54 66° NW 12:38:09 18° NE
IRIDIUM 104 4.3 12:33:47 54° NNW 12:35:00 79° W 12:40:21 10° S
Lacrosse 4 Rocket 3.6 12:32:17 10° WSW 12:33:41 15° W 12:33:41 15° W
Cosmos 2239 Rocket 4.5 12:33:18 10° S 12:39:41 79° W 12:42:00 42° N
Lacrosse 5 4.1 12:37:35 10° WSW 12:41:49 25° SSW 12:46:03 10° SE
Resurs 1-4 Rocket 2.0 12:41:29 45° NNE 12:43:11 89° WNW 12:48:35 10° SSW
ADEOS II 2.5 12:40:54 30° NE 12:43:23 61° ESE 12:48:37 10° S
Cosmos 1743 3.1 12:39:58 10° S 12:43:28 49° ESE 12:43:39 48° E
IRIDIUM 114 4.4 12:42:55 49° NW 12:44:11 66° W 12:49:29 10° S
MSX 4.0 12:43:53 44° NNW 12:45:20 56° W 12:51:03 10° SSW
H-2A R/B 3.9 12:48:43 17° W 12:48:43 17° W 12:50:53 10° SW
Cosmos-2242 2.8 12:49:17 69° N 12:49:47 89° E 12:54:04 10° S
NOSS 3-1 (A) 4.5 12:46:07 10° WSW 12:50:45 24° WNW 12:50:45 24° WNW
CZ-2C R/B 3.9 12:51:35 33° WNW 12:52:18 34° W 12:57:04 10° SSW
H-2A R/B 2.3 12:51:53 10° S 12:55:51 70° WSW 12:56:16 63° WNW
Cosmos 1656 4.0 12:54:16 37° NW 12:56:24 61° WSW 13:02:07 10° SSE
Cosmos 407 Rocket 3.4 12:52:18 10° SSW 12:57:39 88° ESE 12:59:45 38° NNE
NPP 4.2 12:57:44 38° NW 12:58:48 43° W 13:04:00 10° SSW
Cosmos 1238 Rocket 2.6 12:59:57 62° E 12:59:57 62° E 13:03:34 10° SSE
Cosmos 2058 Rocket 3.8 13:02:01 35° W 13:02:43 38° WSW 13:06:51 10° S
ALOS 2.5 13:02:48 33° NE 13:04:48 66° ESE 13:09:27 10° S
Cosmos 1934 Rocket 3.9 12:58:33 10° S 13:04:49 83° W 13:07:34 35° N
Cosmos 1140 Rocket 3.8 13:02:07 10° SSW 13:07:09 46° WNW 13:08:05 42° NW
Meteor 1-26 Rocket 4.2 13:06:26 38° N 13:08:38 77° E 13:14:09 10° SSE
Cosmos 2360 4.3 13:08:30 39° NW 13:10:45 74° WSW 13:16:34 10° SSE
USA 59 Rocket 1.6 13:02:30 10° SW 13:12:19 74° WNW 13:18:36 16° NNE
Envisat 3.6 13:09:36 19° NE 13:13:07 55° ESE 13:18:09 10° S
Cosmos 2263 Rocket 3.6 13:11:45 10° SSW 13:17:06 38° SE 13:22:23 10° ENE
Cosmos 1733 4.3 13:16:37 10° S 13:19:43 33° ESE 13:21:03 24° ENE
SeaSat 1 3.4 13:20:19 29° WNW 13:20:24 29° WNW 13:24:43 10° SW
AQUA 3.7 13:21:04 33° NNE 13:23:13 89° E 13:28:02 10° SSW
CZ-2D R/B 2.6 13:22:55 35° NW 13:24:23 43° W 13:29:30 10° SSW
USA 276 3.0 13:23:13 10° WSW 13:26:13 46° SSE 13:29:03 10° E
USA 215 4.3 13:24:12 10° ESE 13:30:00 32° NE 13:33:15 21° N
Spot 2 4.2 13:26:38 10° S 13:30:40 56° WSW 13:31:48 41° NW
Cosmos 1954 Rocket 4.3 13:25:43 10° SSW 13:31:05 70° ESE 13:35:58 12° NNE
CZ-2C R/B 4.0 13:29:15 10° NE 13:33:21 32° ESE 13:37:33 10° S
Cosmos 1535 Rocket 4.5 13:27:53 10° SSW 13:34:09 73° W 13:37:47 27° N
ATLAS 2AS CENTAUR R/B 4.5 13:29:06 10° W 13:34:56 27° SSW 13:40:57 10° SSE
Cosmos 1624 Rocket 4.1 13:32:53 32° N 13:35:20 72° ENE 13:40:39 10° SSE
Cosmos 1766 Rocket 4.5 13:31:41 10° S 13:35:55 45° ESE 13:39:25 14° NNE
Cosmos 2297 Rocket 2.7 13:30:46 10° SW 13:36:03 39° WNW 13:37:44 32° NW
Cosmos 1697 Rocket 2.7 13:36:22 32° NW 13:39:02 72° WSW 13:44:45 10° SSE
Cosmos 1400 Rocket 3.9 13:38:28 22° NNE 13:40:21 37° E 13:43:59 10° SSE
H-2A R/B 3.5 13:40:22 42° NNW 13:41:18 54° W 13:45:18 10° SSW
SL-4 R/B 1.9 13:39:58 10° WSW 13:44:00 80° SSE 13:47:45 10° ENE
Cosmos 1441 Rocket 3.4 13:41:04 10° SSW 13:44:34 44° W 13:44:58 42° WNW
Cosmos 2227 Rocket 2.2 13:39:23 10° SSW 13:45:04 68° WNW 13:49:19 18° N
Lacrosse 5 rocket 4.2 13:44:08 10° SSW 13:46:02 14° S 13:47:56 10° SE
Cosmos 1461 2.8 13:48:21 38° NNW 13:49:51 76° NE 13:53:58 10° SE
METEOR-M 4.1 13:47:10 17° NNE 13:51:20 88° WNW 13:56:48 10° SSW
Cosmos 1536 3.4 13:48:28 10° S 13:52:15 52° ESE 13:55:10 16° NNE
Cosmos 1980 Rocket 2.3 13:49:24 26° N 13:52:36 72° ENE 13:58:15 10° SSE
CZ-2C R/B 2.8 13:47:55 10° SSE 13:53:34 73° ENE 13:57:12 22° N
Cosmos 1190 Rocket 4.1 13:51:47 10° SSW 13:57:02 56° WNW 14:00:24 22° N
Blok-2BL 4.3 13:56:03 10° SSW 13:58:32 37° SE 13:59:36 17° ENE
Okean 1 3.2 13:58:30 30° N 14:00:14 78° E 14:04:02 10° SSE
SME Rocket 3.3 13:59:08 31° NNW 14:00:39 45° WNW 14:04:20 10° SSW
Cosmos 2219 3.3 13:56:52 10° SSW 14:02:42 82° ESE 14:08:29 10° NNE
Cosmos 2221 2.8 14:01:27 31° NW 14:03:13 53° WSW 14:07:27 10° S
Tiangong -1.7 14:05:28 40° NNW 14:05:42 40° N 14:08:47 10° ENE
CRYOSAT 2 4.4 14:00:59 10° S 14:05:59 84° E 14:09:33 19° N
Cosmos 1842 Rocket 4.2 14:02:48 16° NNE 14:06:10 52° E 14:10:34 10° SSE
Meteor 1-10 Rocket 4.4 14:05:12 17° N 14:09:35 72° E 14:15:18 10° SSE
ATLAS 3B R/B 3.9 14:06:13 10° WSW 14:10:07 17° WNW 14:10:36 17° WNW
MOZ.5/SAFIR/RUBIN 5/SL-8 4.0 14:06:53 10° SSE 14:11:41 71° ENE 14:15:14 18° N
Cosmos 2173 Rocket 4.2 14:06:43 10° S 14:12:56 72° E 14:19:10 10° NNE
Cosmos 1371 Rocket 4.3 14:10:48 24° NW 14:13:51 54° WSW 14:19:02 10° SSE
PAYLOAD A 4.3 14:13:46 10° NNE 14:19:01 77° ESE 14:24:30 10° S
USA 229 DEB 4.4 14:14:28 10° WSW 14:19:29 25° WNW 14:21:43 20° NW
USA 229 4.4 14:14:32 10° WSW 14:19:35 25° WNW 14:21:53 20° NW
ADEOS II 3.6 14:21:45 17° WNW 14:23:22 19° W 14:27:08 10° SW
Resurs 1-4 Rocket 4.0 14:22:32 12° W 14:23:42 12° W 14:25:53 10° WSW
BlueWalker 3 2.1 14:22:18 25° NNW 14:24:14 59° NE 14:27:58 10° ESE
Cosmos 2082 3.8 14:18:45 10° SSW 14:24:35 87° ESE 14:30:20 10° NNE
SJ 16-02 2.0 14:21:00 10° SSW 14:25:19 56° ESE 14:29:37 10° NE
Cosmos 1452 Rocket 4.0 14:21:10 14° N 14:25:37 58° ENE 14:30:52 10° SSE
USA 305 2.6 14:23:34 23° WNW 14:25:38 72° SSW 14:29:37 10° SE
Lacrosse 5 4.3 14:22:08 10° SW 14:26:15 23° S 14:30:22 10° ESE
TSX-5 3.5 14:23:04 10° SSW 14:26:32 73° ESE 14:29:40 10° NE
Cosmos 1802 Rocket 4.3 14:22:10 10° S 14:28:26 68° E 14:34:35 10° NNE
Cosmos 1805 3.0 14:25:55 10° S 14:29:34 88° E 14:33:08 10° N
Meteor 2-9 Rocket 4.1 14:24:30 10° S 14:30:09 88° W 14:35:34 10° N
Sich 1 4.3 14:27:14 10° S 14:31:18 40° ESE 14:35:21 10° NNE
Cosmos 2322 Rocket 4.3 14:28:20 10° NNE 14:32:34 22° E 14:36:49 10° SE
EXPRESS MD2 4.3 14:32:19 10° WSW 14:34:25 29° S 14:37:06 10° ESE
H-2A R/B 2.1 14:29:26 10° NNE 14:34:48 82° WNW 14:40:04 10° SSW
ARGOS 4.2 14:30:42 10° NE 14:35:55 50° ESE 14:41:13 10° S
IRS-1D 3.8 14:32:10 10° NNE 14:37:22 75° ESE 14:42:32 10° S
Cosmos 2056 Rocket 4.5 14:33:57 16° WNW 14:37:38 36° WSW 14:42:37 10° S
Cosmos 2360 Rocket 4.5 14:34:00 10° NE 14:37:53 19° E 14:41:46 10° SE
Cosmos 2016 Rocket 4.4 14:32:03 10° S 14:38:25 69° E 14:44:38 10° NNE
Cosmos 1331 Rocket 4.1 14:34:50 14° NNW 14:39:26 79° ENE 14:44:48 10° SSE
SL-16 R/B 3.3 14:34:33 10° N 14:39:48 40° ENE 14:45:06 10° SE
Cosmos 1727 Rocket 4.3 14:35:49 16° NNW 14:40:51 53° WSW 14:47:09 10° S
Meteor 1-19 Rocket 4.1 14:36:25 13° NNW 14:41:22 82° W 14:46:54 10° S
ALOS 4.1 14:40:59 13° WNW 14:42:20 14° W 14:44:51 10° SW
ATLAS 5 CENTAUR R/B 0.9 14:40:18 10° SW 14:42:27 90° ESE 14:46:06 10° NE
Cosmos 968 Rocket 3.6 14:37:35 10° SSW 14:42:48 79° ESE 14:48:00 10° NNE
BREEZE-M DEB 4.2 14:34:28 10° W 14:44:47 88° N 14:49:23 10° E
SAR-Lupe-4 4.0 14:41:55 10° NNE 14:45:28 64° ESE 14:49:05 10° S
Cosmos 1975 3.4 14:43:47 10° S 14:47:36 55° ESE 14:51:23 10° NNE
Meteor 1-11 Rocket 4.0 14:44:37 10° SSW 14:50:34 60° W 14:56:23 10° N
Cosmos 1346 Rocket 2.7 14:47:15 10° SSW 14:51:02 64° W 14:54:46 10° N
Cosmos 2369 3.9 14:46:34 15° NW 14:51:24 62° WSW 14:57:08 10° SSE
Cosmos 1850 Rocket 4.0 14:46:49 10° SSW 14:52:10 79° WNW 14:57:23 10° NNE
Envisat 4.4 14:49:45 14° NW 14:52:25 20° W 14:56:10 10° SW
CZ-4 R/B 4.0 14:47:39 10° N 14:52:35 63° WNW 14:57:38 10° SSW
Meteor 2-4 Rocket 4.3 14:49:51 10° N 14:55:23 58° E 15:00:50 10° SSE
Cosmos 1939 Rocket 3.4 14:53:15 10° NNE 14:56:57 58° ESE 15:00:41 10° S
Meteor 1-27 Rocket 3.9 14:51:12 10° NNW 14:57:03 75° WSW 15:03:05 10° S
Cosmos 1459 Rocket 4.1 14:51:01 10° SSW 14:57:13 58° W 15:03:16 10° N
USA 276 2.4 14:57:15 10° WSW 15:00:00 34° NW 15:02:34 10° NNE
USA 59 Rocket 2.9 14:54:50 10° WSW 15:00:10 18° W 15:04:36 10° NW
Cosmos 2263 Rocket 2.8 14:55:44 10° SW 15:01:00 38° WNW 15:06:12 10° N
Cosmos 2084 3.8 14:58:41 11° NNW 15:02:35 61° NE 15:06:53 10° SE
Cosmos 1408 Rocket 3.5 14:59:29 10° SSW 15:03:52 74° W 15:08:13 10° N
Cosmos 2061 Rocket 4.2 14:59:42 10° S 15:06:03 78° E 15:12:22 10° NNE
Cosmos 2237 4.3 15:01:37 10° NNW 15:07:22 84° ENE 15:13:09 10° SSE
Cosmos 1743 Rocket 3.8 15:05:11 10° S 15:09:35 73° E 15:13:55 10° NNE
YAOGAN 6 2.9 15:07:02 10° NNW 15:09:44 31° W 15:12:30 10° SSW
USA 306 0.4 15:08:49 14° WNW 15:10:21 78° SW 15:11:47 10° SE
CZ-2C R/B 3.2 15:07:24 10° NNW 15:11:26 29° W 15:15:34 10° SW
Cosmos 1356 Rocket 3.4 15:08:02 10° NNW 15:11:57 59° WSW 15:15:53 10° S
USA 215 3.4 15:06:46 10° SE 15:13:25 83° SW 15:20:02 10° WNW
Cosmos 2219 Rocket 4.5 15:10:51 10° NNE 15:15:00 21° E 15:19:09 10° SE
USA 307 2.2 15:15:20 11° NW 15:17:49 59° NE 15:21:07 10° ESE
Cosmos 1725 Rocket 4.1 15:12:28 10° SSW 15:18:44 60° W 15:24:53 10° N
Cosmos 1805 Rocket 3.5 15:14:40 10° SSW 15:19:04 72° W 15:23:23 10° N
Cosmos 2123 Rocket 4.3 15:14:11 10° NNW 15:20:13 53° WSW 15:26:21 10° S
SL-19 R/B 3.6 15:18:25 10° N 15:21:21 65° WNW 15:24:32 10° SSW
SL-4 R/B 3.1 15:19:02 10° W 15:21:51 19° NW 15:24:32 10° N
Cosmos 2227 4.2 15:18:15 10° SSW 15:23:56 79° WNW 15:29:34 10° NNE
Lacrosse 5 rocket 2.8 15:21:24 10° SW 15:24:40 34° SSE 15:27:52 10° E
Cosmos 304 Rocket 4.0 15:25:33 10° SSW 15:30:24 80° ESE 15:35:10 10° NNE
SL-16 R/B 3.0 15:25:30 10° SSE 15:31:44 66° ENE 15:37:53 10° N
Cosmos 1844 Rocket 2.9 15:26:22 10° SSW 15:32:09 84° ESE 15:37:51 10° NNE
Meteor 1-18 Rocket 4.4 15:27:18 10° N 15:33:01 85° ENE 15:38:44 10° SSE
